Location: Sungai Jaoh
(2.9167°N, 113.9167°E)
Time: 01:24:48
(UTC+00:00)

Envisat - Pass Details

Date: 04 October 2021
Orbit: 764 x 766 km, 98.2° (Epoch: 17 October)

Event Time Altitude Azimuth Distance (km) Brightness Sun altitude
Rises 20:16:52 0° 39° (NE) 3,215 6.7 -29.1°
Reaches altitude 10° 20:19:46 10° 56° (ENE) 2,292 6.1 -28.4°
Maximum altitude 20:23:21 20° 102° (ESE) 1,728 5.6 -27.5°
Drops below altitude 10° 20:26:55 10° 147° (SSE) 2,298 5.9 -26.6°
Sets 20:29:49 0° 164° (SSE) 3,226 6.5 -25.9°
